Regional Weather Roundup
Issued by NWS Northern Indiana

Home | Current Version | Previous Version | Text Only | Print | Product List | Glossary On
Versions: 1 2 3 4 5 6 7 8 9 10 11 12 13 14 15 16 17 18 19 20 21 22 23 24 25 26 27 28 29 30 31 32 33 34 35 36 37 38 39 40 41 42 43 44 45 46 47 48 49 50
000
ASUS43 KIWX 291000
RWRIWX

KIWX WEATHER ROUNDUP
NATIONAL WEATHER SERVICE NORTHERN INDIANA
600 AM EDT TUE JUL 29 2014

NOTE: "FAIR" INDICATES FEW OR NO CLOUDS BELOW 12,000 FEET WITH NO
SIGNIFICANT WEATHER AND/OR OBSTRUCTIONS TO VISIBILITY.

* THESE STATIONS ARE NOT UNDER NWS QUALITY CONTROL. THEY ALSO MAY NOT
  REPORT WEATHER SUCH AS PRECIPITATION OR FOG.

INZ001>027-291100-
NORTHERN INDIANA

CITY           SKY/WX    TMP DP  RH WIND       PRES   REMARKS
GARY*          CLEAR     54  52  94 S5        30.05S
VALPARAISO     CLEAR     51  50  96 W5        30.05S
SOUTH BEND     CLEAR     51  47  86 S3        30.03F
GOSHEN         CLEAR     49  46  90 CALM      30.04R
ANGOLA*        CLEAR     48  48 100 CALM      30.03R
FORT WAYNE     CLEAR     48  46  93 CALM      30.04S
PERU/GRISSOM   CLEAR     49  49 100 W3        30.05R

$$
INZ028>050-291100-
CENTRAL INDIANA

CITY           SKY/WX    TMP DP  RH WIND       PRES   REMARKS
LAFAYETTE      PTCLDY    52  51  97 CALM      30.05S
KOKOMO*        PTCLDY    52  48  87 CALM      30.06R
MUNCIE*        CLEAR     49  46  90 CALM      30.05R
INDIANAPOLIS   CLOUDY    55  49  80 W5        30.05R

$$
MIZ043>046-050>051-056>058-064>065-071>073-077>080-291100-
SOUTHWEST LOWER MICHIGAN

CITY           SKY/WX    TMP DP  RH WIND       PRES   REMARKS
BATTLE CREEK   CLEAR     51  47  86 SW5       30.02R
BENTON HARBOR  PTCLDY    47  46  97 CALM      30.02S
COLDWATER*     CLEAR     49  48  97 CALM      30.02S
HILLSDALE*       N/A     46  46 100 CALM      30.01S FOG
HOLLAND        CLOUDY    53  50  89 CALM      30.01S
GRAND RAPIDS   MOCLDY    53  49  86 SW3       30.01R
KALAMAZOO      CLEAR     50  47  89 CALM      30.03R
STURGIS*       CLEAR     46  46 100 CALM      30.02S
THREE RIVERS*  FAIR      48  48  99 SW3       30.03S

$$
OHZ001>008-015>018-024>025-291100-
NORTHWEST OHIO

CITY           SKY/WX    TMP DP  RH WIND       PRES   REMARKS
DEFIANCE       CLEAR     48  46  93 CALM      30.02S
FINDLAY        CLEAR     52  48  86 NW3       30.00R
TOLEDO EXPRESS CLEAR     50  46  86 CALM      30.01R
TOLEDO METCALF CLEAR     52  46  80 CALM      30.01S
LIMA           CLEAR     51  49  92 NW3       30.02R

$$
&&


USA.gov is the U.S. government's official web portal to all federal, state and local government web resources and services.